STARLINK-35315, 66543

Orbit data source: Space-Track

STARLINK-35315, 66543 is a payload satellite owned by SpaceX/Seattle (US) in LEO that was launched on Wed, 19 Nov 2025 UTC via an FALCON 9 launch vehicle from the Air Force Eastern Test Range (AFETR). Payload-class satellites include a variety of spacecraft equipped with specific instruments for various scientific and technological missions. These include communications satellites like Starlink; space stations such as the ISS; scientific satellites like the Hubble; Earth observation satellites from companies like Planet Labs, Umbra, and HawkEye 360; GPS; miniature CubeSats for education and research; and military/defense satellites.

Loading next visibility...
Identifier
66543, 2025-265AD
Orbit
LEO
Country
Flag of USUS
Related business
Manufacturer
SpaceX/Seattle
Mission
Operational Commercial Communications
Bus & Motor
STARLINK V2MO, Unknown motor
Mass
575 kg wet, ~530 kg dry
Launch date (UTC)
2025-11-19 (7 months ago)
Launch vehicle
FALCON 9
Launch site
Air Force Eastern Test Range (AFETR)
Object type
Payload
Rocket body
Debris
Shape & HBR
Box + 2 Pan, 17.7 m
Radar Cross Section
36.964 m², Large (>1 m²)

Expand to show TLE details & history
Last TLE update: 21 hours ago

TLE from 21 hours ago
0 STARLINK-35315
1 66543U 25265AD  26171.03808587  .00014501  00000-0  53515-3 0  9993
2 66543  42.9995  60.1513 0001361 272.4236  87.6460 15.27598691 32769
Epoch: 2026-06-20T00:54Z
TLE epoch observation values (Epoch: 2026-06-20T00:54:50.619Z)
Latitude
0.00001°
Longitude
138.18195°
Altitude
482.73 km
Speed
7.626 km/s
True Right ascension
04h 00m 36s
True Declination
0° 00' 00"
Sunlit
Object was in daylight at epoch
Visualization orbit readout
Latitude
Unknown
Longitude
Unknown
Altitude
Unknown
Speed
Unknown
Apparent Right ascension
Unknown
Apparent Declination
Unknown
Sunlit
N/A
Visualization observer readout
Local Sidereal Time
08:32:22
Azimuth
Unknown
Elevation
Unknown
Doppler factor
Unknown
Orbital elements
Apogee altitude
485.872 km
Perigee altitude
484.004 km
Semi-major axis
6,863.075 km
Eccentricity
0.00014
Inclination
42.9995°
RAAN
60.1513°
Arg. of periapsis
272.4236°
True anomaly
87.66158°
Mean anomaly
87.646°
Eccentric anomaly
87.65379°
Mean motion
3.81738 °/min
Orbital period
94.31 mins
BSTAR
0.00053515
Loading maneuver chart data...
Computing Atmospheric mass density...
Loading historical data...
Loading historical data...
Loading historical data...
Loading historical data...
Loading historical data...
Loading historical data...
Loading historical data...

Documentation

Showing up to 5 results
|